FLTSATCOM 8 (USA 46)

Last updated on Jan. 29, 2020, 4:37 a.m. UTC

1 20253U 89077A   20028.44202231 -.00000079  00000-0  00000+0 0  9999
2 20253  13.0463   6.6258 0003883 316.2063  35.4306  1.00270396237226
UTC
Height (km)
Latitude
Longitude
Inclination
Orbital Period
UTC large
Height (km)
Speed (km/s)
/
Latitude / Longitude
Inclination (degrees)
Orbital Period (minutes)
Azimuth
Elevation
Range (km)
Doppler Factor
iOS Compass Heading
iOS Angle

Next 30 passes for location: Hong Kong

Rise time Rise Azimuth (degrees) Set time Set Azimuth (degrees) Duration Max altitude (degrees)

No matching passes for this satellites